This is the latest recevied weather packets stored in our database for station/object KA3RQR. If no packets are shown the sender has not sent any weather packets the latest 10 day(s).
| Time | Temp. | Humidity | Pressure | Rain* | Wind** | Luminosity | Snow |
|---|---|---|---|---|---|---|---|
| 1778198918 | 12.78° C | 75% | 1010 hPa | 0 mm | - | 0 W/m² | - |
| 1778198615 | 12.78° C | 75% | 1010 hPa | 0 mm | - | 1 W/m² | - |
| 1778198312 | 12.78° C | 74% | 1010 hPa | 0 mm | - | 3 W/m² | - |
| 1778198009 | 13.33° C | 74% | 1010.1 hPa | 0 mm | - | 4 W/m² | - |
| 1778197706 | 13.33° C | 74% | 1009.8 hPa | 0 mm | - | 6 W/m² | - |
| 1778197403 | 13.33° C | 73% | 1009.9 hPa | 0 mm | - | 9 W/m² | - |
| 1778197099 | 13.89° C | 73% | 1009.7 hPa | 0 mm | - | 12 W/m² | - |
| 1778196797 | 13.89° C | 72% | 1009.5 hPa | 0 mm | - | 14 W/m² | - |
| 1778196495 | 13.89° C | 71% | 1009.5 hPa | 0 mm | - | 17 W/m² | - |
| 1778196191 | 13.89° C | 71% | 1009.6 hPa | 0 mm | - | 20 W/m² | - |
| 1778195888 | 14.44° C | 69% | 1009.4 hPa | 0 mm | - | 22 W/m² | - |
| 1778195585 | 14.44° C | 68% | 1009.5 hPa | 0 mm | - | 25 W/m² | - |
| 1778195281 | 14.44° C | 67% | 1009.4 hPa | 0 mm | - | 28 W/m² | - |
| 1778194979 | 14.44° C | 66% | 1009 hPa | 0 mm | - | 32 W/m² | - |
| 1778194678 | 15° C | 65% | 1009.2 hPa | 0 mm | - | 33 W/m² | - |
| 1778194374 | 15° C | 64% | 1009.3 hPa | 0 mm | - | 44 W/m² | - |
| 1778194070 | 15.56° C | 63% | 1009.1 hPa | 0 mm | - | 56 W/m² | - |
| 1778193767 | 15.56° C | 62% | 1008.9 hPa | 0 mm | - | 98 W/m² | - |
| 1778193464 | 15.56° C | 61% | 1008.8 hPa | 0 mm | - | 112 W/m² | - |
| 1778193160 | 16.11° C | 60% | 1009 hPa | 0 mm | - | 140 W/m² | - |
| 1778192857 | 16.67° C | 57% | 1008.7 hPa | 0 mm | - | 135 W/m² | - |
| 1778192553 | 16.11° C | 58% | 1009 hPa | 0 mm | - | 160 W/m² | - |
| 1778192251 | 16.11° C | 58% | 1008.9 hPa | 0 mm | - | 176 W/m² | - |
| 1778191946 | 15.56° C | 59% | 1008.9 hPa | 0 mm | - | 196 W/m² | - |
| 1778191643 | 16.11° C | 58% | 1008.8 hPa | 0 mm | - | 211 W/m² | - |
* Rain latest hour (hover to see other rain measurements)
** Current wind speed in m/s (hover to see current wind gust speed)